Flag for China Weather past 2 weeks in Kunming, Yunnan, China

Now
63 °F

Scattered clouds.


Feels Like: 63 °F
Forecast: 51 / 69 °F
Wind: 15 mph from Southwest

Location: Kunming Airport

Current Time: Apr 27, 2015 at 1:09:14 PM

Latest Report: Apr 27, 2015 at 12:00 PM


Visibility: N/A

Pressure: 30.24 "Hg

Humidity: 64%

Dew point: 50 °F

Location of KunmingLocation

Historic Weather in Kunming — Graph

°F

Kunming temperature yesterday

Maximum temperature yesterday: 68 °F (at 4:00 PM)
Minimum temperature yesterday: 54 °F (at 12:00 AM)
Average temperature yesterday: 59 °F

Past Weeks' High & Low Weather Summary

 TemperatureHumidityPressure
High82 °F (Apr 17, 2:00 PM)100% (Apr 22, 12:00 AM)30.51 "Hg (Apr 22, 12:00 AM)
Low46 °F (Apr 13, 6:00 AM)14% (Apr 15, 2:00 PM)29.92 "Hg (Apr 17, 3:00 PM)
Average61 °F67%30.19 "Hg
* Reported Apr 12 12:00 Noon — Apr 27 12:00 Noon, Kunming, Weather by CustomWeather, © 2015

Note: Actual official high and low records may vary slightly from our data, if they occured in-between our weather recording intervals... More about our weather records

Advertising

Kunming weather history for previous 24 hours

 ConditionsComfort  
Time TempWeatherWind HumidityBarometerVisibility
12:00 PM
Mon, Apr 27
63 °FScattered clouds.15 mph64%30.24 "HgN/A
11:00 AM63 °FBroken clouds.15 mph64%30.24 "HgN/A
10:00 AM63 °FScattered clouds.20 mph68%30.24 "HgN/A
9:00 AM59 °FScattered clouds.15 mph88%30.24 "Hg5 mi
8:00 AM55 °FScattered clouds.13 mph100%30.21 "Hg4 mi
7:00 AM54 °FScattered clouds.13 mph100%30.18 "Hg5 mi
6:00 AM54 °FPassing clouds.10 mph100%30.18 "Hg4 mi
5:00 AM55 °FPassing clouds.10 mph100%30.18 "HgN/A
4:00 AM55 °FPassing clouds.10 mph100%30.18 "HgN/A
3:00 AM55 °FPassing clouds.10 mph100%30.18 "HgN/A
2:00 AM55 °FPassing clouds.10 mph100%30.21 "HgN/A
1:00 AM55 °FPassing clouds.13 mph100%30.24 "HgN/A
12:00 AM57 °FPassing clouds.13 mph94%30.24 "HgN/A
11:00 PM
Sun, Apr 26
57 °FMostly cloudy.13 mph100%30.24 "HgN/A
10:00 PM57 °FPassing clouds.10 mph94%30.24 "HgN/A
9:00 PM57 °FPassing clouds.10 mph88%30.21 "HgN/A
8:00 PM59 °FSprinkles. Passing clouds.15 mph82%30.21 "HgN/A
7:00 PM64 °FScattered clouds.13 mph68%30.18 "HgN/A
6:00 PM64 °FScattered clouds.17 mph64%30.15 "HgN/A
5:00 PM66 °FBroken clouds.15 mph64%30.15 "HgN/A
4:00 PM68 °FBroken clouds.17 mph60%30.18 "HgN/A
3:00 PM66 °FBroken clouds.13 mph60%30.21 "HgN/A
2:00 PM64 °FBroken clouds.15 mph73%30.24 "HgN/A
1:00 PM63 °FBroken clouds.13 mph83%30.27 "HgN/A
Weather by CustomWeather, © 2015

See weather overviewHow to use our weather pages